Weather History for KFSI - March, 2013

Change the Weather History Date:

Sunday, March 10, 2013

  Actual Average Record
Temperature  
Mean Temperature 48 °F -  
Max Temperature 59 °F 64 °F 92 °F (1955)
Min Temperature 36 °F 38 °F 17 °F (1998)
Degree Days  
Heating Degree Days 18    
Moisture  
Dew Point 31 °F    
Average Humidity 59    
Maximum Humidity 81    
Minimum Humidity 36    
Precipitation  
Precipitation 0.00 in - - ()
Sea Level Pressure  
Sea Level Pressure 29.89 in    
Wind  
Wind Speed 17 mph (NW)    
Max Wind Speed 28 mph    
Max Gust Speed 43 mph    
Visibility 10 miles    
Events Rain    
Averages and records for this station are not official NWS values.
T = Trace of Precipitation, MM = Missing Value Source: NWS Daily Summary

Daily Weather History Graph

Daily Weather History Graph

Search for Another Location

Airport or City:

Trip Planner

Search our weather history database for the weather conditions in past years. The results will help you decide how hot, cold, wet, or windy it might be!

Date:

Astronomy

Mar. 10, 2013 Rise Set
Actual Time 7:50 AM CDT 7:37 PM CDT
Civil Twilight 7:25 AM CDT 8:02 PM CDT
Nautical Twilight 6:56 AM CDT 8:31 PM CDT
Astronomical Twilight 6:27 AM CDT 9:01 PM CDT
Moon 6:49 AM CDT (3/10) 6:47 PM CDT (3/10)
Length of Visible Light 12h 37m
Length of Day
11h 46m
Waning Crescent, 2% of the Moon is Illuminated
Mar 10
Waning Crescent
Mar 11
New
Mar 19
First Quarter
Mar 27
Full
Apr 2
Last Quarter

Hourly Weather History & Observations

Time (CDT) Temp. Windchill Dew Point Humidity Pressure Visibility Wind Dir Wind Speed Gust Speed Precip Events Conditions
12:01 AM 59.0 °F - 32.0 °F 36% 29.75 in 10.0 mi WSW 20.7 mph 42.6 mph N/A   Light Drizzle
12:12 AM 59.0 °F - 32.0 °F 36% 29.76 in 10.0 mi WSW 27.6 mph 36.8 mph N/A Rain Light Rain
12:24 AM 59.0 °F - 32.0 °F 36% 29.74 in 10.0 mi WSW 11.5 mph 29.9 mph N/A   Partly Cloudy
12:58 AM 58.8 °F - 31.5 °F 36% 29.71 in 10.0 mi SW 8.1 mph - 0.00 in   Mostly Cloudy
1:46 AM 57.2 °F - 32.0 °F 38% 29.73 in 10.0 mi NW 12.7 mph 17.3 mph N/A   Scattered Clouds
1:48 AM 57.2 °F - 33.8 °F 41% 29.73 in 10.0 mi NNW 18.4 mph 23.0 mph N/A   Scattered Clouds
1:58 AM 51.1 °F - 38.1 °F 61% 29.73 in 10.0 mi NW 16.1 mph 23.0 mph N/A   Partly Cloudy
3:58 AM 47.1 °F - 35.8 °F 65% 29.73 in 10.0 mi WNW 13.8 mph - N/A   Scattered Clouds
4:58 AM 46.4 °F 40.1 °F 34.9 °F 64% 29.72 in 10.0 mi NW 15.0 mph - N/A   Partly Cloudy
5:58 AM 45.5 °F 41.3 °F 34.3 °F 65% 29.75 in 10.0 mi NW 8.1 mph - N/A   Overcast
6:58 AM 44.1 °F 36.5 °F 33.8 °F 67% 29.77 in 10.0 mi NW 17.3 mph 23.0 mph N/A   Overcast
7:58 AM 41.9 °F 32.3 °F 34.7 °F 76% 29.81 in 10.0 mi NW 23.0 mph 29.9 mph N/A   Overcast
8:03 AM 41.0 °F 31.6 °F 35.6 °F 81% 29.82 in 10.0 mi NW 20.7 mph 31.1 mph N/A   Overcast
8:08 AM 41.0 °F 31.6 °F 35.6 °F 81% 29.82 in 10.0 mi NW 20.7 mph 31.1 mph N/A   Overcast
8:13 AM 41.0 °F 31.6 °F 33.8 °F 76% 29.83 in 10.0 mi NW 20.7 mph 27.6 mph N/A   Overcast
8:28 AM 41.0 °F 31.6 °F 32.0 °F 70% 29.83 in 10.0 mi NNW 20.7 mph 29.9 mph N/A   Overcast
8:58 AM 40.1 °F 30.2 °F 31.8 °F 72% 29.86 in 10.0 mi NNW 21.9 mph 29.9 mph N/A   Overcast
9:58 AM 40.5 °F 31.8 °F 30.9 °F 69% 29.89 in 10.0 mi NNW 17.3 mph 25.3 mph N/A   Overcast
10:58 AM 40.5 °F 30.9 °F 31.1 °F 69% 29.93 in 10.0 mi NNW 20.7 mph 27.6 mph N/A   Overcast
11:58 AM 40.8 °F 31.4 °F 30.0 °F 65% 29.95 in 10.0 mi NNW 20.7 mph 29.9 mph N/A   Overcast
12:58 PM 40.5 °F 31.2 °F 28.6 °F 63% 29.99 in 10.0 mi NNW 19.6 mph 26.5 mph N/A   Overcast
1:58 PM 42.1 °F 33.3 °F 27.5 °F 56% 29.98 in 10.0 mi NNW 19.6 mph 32.2 mph N/A   Overcast
2:58 PM 43.3 °F 35.2 °F 27.0 °F 52% 29.99 in 10.0 mi NNW 18.4 mph 24.2 mph N/A   Overcast
3:58 PM 45.5 °F 37.8 °F 27.3 °F 49% 29.99 in 10.0 mi NNW 19.6 mph 24.2 mph N/A   Overcast
4:58 PM 46.0 °F 38.5 °F 27.5 °F 48% 29.99 in 10.0 mi NNW 19.6 mph 26.5 mph N/A   Overcast
5:58 PM 47.1 °F - 27.3 °F 46% 30.00 in 10.0 mi NW 18.4 mph 24.2 mph N/A   Overcast
6:58 PM 44.8 °F 38.0 °F 26.4 °F 49% 30.01 in 10.0 mi NNW 15.0 mph 19.6 mph N/A   Mostly Cloudy
7:58 PM 43.0 °F 37.2 °F 26.1 °F 51% 30.03 in 10.0 mi NNW 10.4 mph - N/A   Overcast
8:58 PM 40.8 °F 35.0 °F 27.0 °F 58% 30.06 in 10.0 mi NNW 9.2 mph - N/A   Clear
9:58 PM 36.0 °F 32.1 °F 27.9 °F 72% 30.09 in 10.0 mi North 4.6 mph - N/A   Clear
10:58 PM 36.5 °F 31.8 °F 28.2 °F 72% 30.10 in 10.0 mi NNW 5.8 mph - N/A   Clear
11:58 PM 37.2 °F 31.9 °F 26.6 °F 65% 30.10 in 10.0 mi NW 6.9 mph - N/A   Clear
12:58 AM 36.5 °F 31.0 °F 25.9 °F 65% 30.09 in 10.0 mi NW 6.9 mph - N/A   Clear